User: anonymous   Login
Location: Poughquag
(41.6090°N, 73.6820°W)
Time: 08:35:57
(UTC-04:00)
Language:

N. Korean satellite - Orbit

View from above orbital plane
View from above orbital plane
View from above satellite
View from above satellite

Ground track
Ground track

The orbit data is extracted from the following two-line orbital elements,

1 39026U 12072A   19167.96094228 +.00001032 +00000-0 +39791-4 0  9995
2 39026 097.2104 171.1656 0039885 106.6817 253.8807 15.27800918361277
Epoch (UTC): 16 June 2019 23:03:45
Eccentricity: 0.0039885
inclination: 97.2104°
perigee height: 455 km
apogee height: 510 km
right ascension of ascending node: 171.1656°
argument of perigee: 106.6817°
revolutions per day: 15.27800918
mean anomaly at epoch: 253.8807°
orbit number at epoch: 36127

The dashed part of the orbit path shows where the satellite is in the earth's shadow,  

DLR